contact:dominique.lefevre@mio.osupytheas.fr, maurice.libes@osupytheas.fr, didier.mallarino@osupytheas.fr
Project:EMSO http://www.emso-fr.org/EMSO-France
Depth: 2436.0 m
Title:EMSO Ligure Ouest : Data MII capteur CSTAR
DateTime,Latitude,Longitude,Instrument_Serial,Reference_Counts,Signal_Counts,Corrected_Signal_raw_counts,Calculated_Beam_c_inverse_meters,Internal_thermistor_counts
DateTime,Latitude,Longitude,Instrument_Serial,Reference_Counts,Signal_Counts,Corrected_Signal_raw_counts,Calculated_Beam_c_inverse_meters,Internal_thermistor_counts
2019-08-10T00:00:25,42.805,6.029,CST-1368DR,8360,11696,15431,0.048,550
2019-08-10T00:03:27,42.805,6.029,CST-1368DR,8360,11699,15433,0.047,551
2019-08-10T00:06:28,42.805,6.029,CST-1368DR,8360,11698,15433,0.047,551
2019-08-10T00:09:30,42.805,6.029,CST-1368DR,8360,11696,15430,0.048,551
2019-08-10T00:12:32,42.805,6.029,CST-1368DR,8360,11695,15429,0.048,550
2019-08-10T00:15:34,42.805,6.029,CST-1368DR,8360,11693,15426,0.049,550
2019-08-10T00:18:35,42.805,6.029,CST-1368DR,8360,11693,15427,0.049,551
2019-08-10T00:21:37,42.805,6.029,CST-1368DR,8360,11687,15418,0.051,551
2019-08-10T00:24:39,42.805,6.029,CST-1368DR,8360,11686,15417,0.051,551
2019-08-10T00:27:41,42.805,6.029,CST-1368DR,8360,11695,15428,0.048,551
2019-08-10T00:30:43,42.805,6.029,CST-1368DR,8360,11690,15422,0.050,551
2019-08-10T00:33:44,42.805,6.029,CST-1368DR,8360,11695,15428,0.048,550
2019-08-10T00:36:46,42.805,6.029,CST-1368DR,8360,11695,15428,0.048,551
2019-08-10T00:39:48,42.805,6.029,CST-1368DR,8360,11693,15426,0.049,551
2019-08-10T00:42:50,42.805,6.029,CST-1368DR,8360,11694,15427,0.049,551
2019-08-10T00:45:51,42.805,6.029,CST-1368DR,8360,11692,15425,0.049,551
2019-08-10T00:48:53,42.805,6.029,CST-1368DR,8360,11691,15424,0.049,551
2019-08-10T00:51:55,42.805,6.029,CST-1368DR,8360,11695,15429,0.048,551
2019-08-10T00:54:57,42.805,6.029,CST-1368DR,8360,11695,15428,0.048,551
2019-08-10T00:57:59,42.805,6.029,CST-1368DR,8360,11696,15430,0.048,551
2019-08-10T01:01:00,42.805,6.029,CST-1368DR,8360,11694,15428,0.048,551
2019-08-10T01:04:02,42.805,6.029,CST-1368DR,8360,11693,15427,0.049,550
2019-08-10T01:07:04,42.805,6.029,CST-1368DR,8360,11691,15424,0.049,551
2019-08-10T01:10:06,42.805,6.029,CST-1368DR,8360,11694,15427,0.049,551
2019-08-10T01:13:08,42.805,6.029,CST-1368DR,8360,11694,15428,0.048,551
2019-08-10T01:16:10,42.805,6.029,CST-1368DR,8360,11694,15428,0.048,550
2019-08-10T01:19:11,42.805,6.029,CST-1368DR,8360,11690,15422,0.050,551
2019-08-10T01:22:13,42.805,6.029,CST-1368DR,8360,11691,15423,0.050,551
2019-08-10T01:25:15,42.805,6.029,CST-1368DR,8360,11691,15424,0.049,551
2019-08-10T01:28:17,42.805,6.029,CST-1368DR,8360,11693,15426,0.049,551
2019-08-10T01:31:18,42.805,6.029,CST-1368DR,8360,11693,15426,0.049,551
2019-08-10T01:34:20,42.805,6.029,CST-1368DR,8360,11692,15425,0.049,550
2019-08-10T01:37:22,42.805,6.029,CST-1368DR,8360,11694,15428,0.048,551
2019-08-10T01:40:24,42.805,6.029,CST-1368DR,8360,11695,15429,0.048,551
2019-08-10T01:43:26,42.805,6.029,CST-1368DR,8360,11693,15427,0.049,551
2019-08-10T01:46:28,42.805,6.029,CST-1368DR,8360,11687,15419,0.051,551
2019-08-10T01:49:29,42.805,6.029,CST-1368DR,8360,11693,15426,0.049,550
2019-08-10T01:52:31,42.805,6.029,CST-1368DR,8360,11686,15417,0.051,551
2019-08-10T01:55:33,42.805,6.029,CST-1368DR,8360,11693,15426,0.049,551
2019-08-10T01:58:35,42.805,6.029,CST-1368DR,8360,11694,15428,0.048,551
2019-08-10T02:01:37,42.805,6.029,CST-1368DR,8360,11693,15426,0.049,551
2019-08-10T02:04:39,42.805,6.029,CST-1368DR,8360,11693,15426,0.049,551
2019-08-10T02:07:40,42.805,6.029,CST-1368DR,8360,11690,15422,0.050,551
2019-08-10T02:10:42,42.805,6.029,CST-1368DR,8359,11693,15428,0.048,551
2019-08-10T02:13:44,42.805,6.029,CST-1368DR,8360,11696,15430,0.048,551
2019-08-10T02:16:46,42.805,6.029,CST-1368DR,8359,11694,15430,0.048,550
2019-08-10T02:19:48,42.805,6.029,CST-1368DR,8359,11692,15427,0.049,551
2019-08-10T02:22:49,42.805,6.029,CST-1368DR,8359,11694,15430,0.048,551
2019-08-10T02:25:51,42.805,6.029,CST-1368DR,8359,11694,15429,0.048,551
2019-08-10T02:28:53,42.805,6.029,CST-1368DR,8359,11690,15424,0.049,551
2019-08-10T02:31:55,42.805,6.029,CST-1368DR,8359,11689,15423,0.050,551
2019-08-10T02:34:56,42.805,6.029,CST-1368DR,8359,11694,15430,0.048,551
2019-08-10T02:37:58,42.805,6.029,CST-1368DR,8359,11692,15426,0.049,551
2019-08-10T02:41:00,42.805,6.029,CST-1368DR,8359,11694,15430,0.048,551
2019-08-10T02:44:02,42.805,6.029,CST-1368DR,8359,11693,15428,0.048,551
2019-08-10T02:47:04,42.805,6.029,CST-1368DR,8359,11692,15427,0.049,551
2019-08-10T02:50:06,42.805,6.029,CST-1368DR,8359,11694,15429,0.048,551
2019-08-10T02:53:07,42.805,6.029,CST-1368DR,8359,11693,15427,0.049,551
2019-08-10T02:56:09,42.805,6.029,CST-1368DR,8359,11694,15429,0.048,551
2019-08-10T02:59:11,42.805,6.029,CST-1368DR,8359,11693,15428,0.048,551
2019-08-10T03:02:13,42.805,6.029,CST-1368DR,8359,11697,15433,0.047,551
2019-08-10T03:05:15,42.805,6.029,CST-1368DR,8359,11695,15430,0.048,551
2019-08-10T03:08:17,42.805,6.029,CST-1368DR,8359,11695,15430,0.048,551
2019-08-10T03:11:18,42.805,6.029,CST-1368DR,8359,11694,15429,0.048,551
2019-08-10T03:14:20,42.805,6.029,CST-1368DR,8359,11695,15431,0.048,551
2019-08-10T03:17:22,42.805,6.029,CST-1368DR,8359,11693,15428,0.048,551
2019-08-10T03:20:24,42.805,6.029,CST-1368DR,8359,11695,15431,0.048,551
2019-08-10T03:23:26,42.805,6.029,CST-1368DR,8359,11696,15431,0.048,551
2019-08-10T03:26:28,42.805,6.029,CST-1368DR,8359,11695,15430,0.048,551
2019-08-10T03:29:29,42.805,6.029,CST-1368DR,8359,11696,15432,0.047,551
2019-08-10T03:32:31,42.805,6.029,CST-1368DR,8359,11693,15427,0.049,551
2019-08-10T03:35:33,42.805,6.029,CST-1368DR,8359,11697,15433,0.047,551
2019-08-10T03:38:35,42.805,6.029,CST-1368DR,8359,11695,15431,0.048,551
2019-08-10T03:41:37,42.805,6.029,CST-1368DR,8359,11694,15430,0.048,551
2019-08-10T03:44:39,42.805,6.029,CST-1368DR,8359,11695,15431,0.048,551
2019-08-10T03:47:40,42.805,6.029,CST-1368DR,8359,11696,15431,0.048,551
2019-08-10T03:50:42,42.805,6.029,CST-1368DR,8359,11695,15431,0.048,551
2019-08-10T03:53:44,42.805,6.029,CST-1368DR,8359,11696,15432,0.047,551
2019-08-10T03:56:46,42.805,6.029,CST-1368DR,8359,11696,15431,0.048,551
2019-08-10T03:59:48,42.805,6.029,CST-1368DR,8359,11695,15431,0.048,551
2019-08-10T04:02:50,42.805,6.029,CST-1368DR,8359,11694,15430,0.048,551
2019-08-10T04:05:51,42.805,6.029,CST-1368DR,8359,11696,15432,0.047,551
2019-08-10T04:08:53,42.805,6.029,CST-1368DR,8359,11695,15431,0.048,551
2019-08-10T04:11:55,42.805,6.029,CST-1368DR,8359,11693,15428,0.048,551
2019-08-10T04:14:57,42.805,6.029,CST-1368DR,8359,11693,15428,0.048,551
2019-08-10T04:17:59,42.805,6.029,CST-1368DR,8359,11693,15428,0.048,551
2019-08-10T04:21:01,42.805,6.029,CST-1368DR,8359,11695,15430,0.048,551
2019-08-10T04:24:02,42.805,6.029,CST-1368DR,8359,11693,15428,0.048,551
2019-08-10T04:27:04,42.805,6.029,CST-1368DR,8359,11695,15430,0.048,550
2019-08-10T04:30:06,42.805,6.029,CST-1368DR,8359,11693,15428,0.048,551
2019-08-10T04:33:08,42.805,6.029,CST-1368DR,8359,11695,15430,0.048,551
2019-08-10T04:36:10,42.805,6.029,CST-1368DR,8359,11695,15431,0.048,551
2019-08-10T04:39:11,42.805,6.029,CST-1368DR,8359,11695,15431,0.048,551
2019-08-10T04:42:13,42.805,6.029,CST-1368DR,8359,11695,15431,0.048,550
2019-08-10T04:45:15,42.805,6.029,CST-1368DR,8359,11692,15427,0.049,551
2019-08-10T04:48:17,42.805,6.029,CST-1368DR,8359,11696,15432,0.047,551
2019-08-10T04:51:19,42.805,6.029,CST-1368DR,8358,11695,15432,0.047,551
2019-08-10T04:54:21,42.805,6.029,CST-1368DR,8358,11696,15433,0.047,551
2019-08-10T04:57:22,42.805,6.029,CST-1368DR,8358,11695,15432,0.047,551
2019-08-10T05:00:24,42.805,6.029,CST-1368DR,8358,11696,15433,0.047,551
2019-08-10T05:03:26,42.805,6.029,CST-1368DR,8358,11694,15431,0.048,551
2019-08-10T05:06:28,42.805,6.029,CST-1368DR,8358,11692,15429,0.048,551
2019-08-10T05:09:30,42.805,6.029,CST-1368DR,8358,11695,15433,0.047,550
2019-08-10T05:12:32,42.805,6.029,CST-1368DR,8358,11695,15432,0.047,550
2019-08-10T05:15:33,42.805,6.029,CST-1368DR,8358,11695,15433,0.047,551
2019-08-10T05:18:35,42.805,6.029,CST-1368DR,8358,11693,15429,0.048,551
2019-08-10T05:21:37,42.805,6.029,CST-1368DR,8358,11693,15429,0.048,551
2019-08-10T05:24:39,42.805,6.029,CST-1368DR,8358,11686,15420,0.051,551
2019-08-10T05:27:42,42.805,6.029,CST-1368DR,8358,11693,15429,0.048,551
2019-08-10T05:30:44,42.805,6.029,CST-1368DR,8358,11693,15429,0.048,551
2019-08-10T05:33:45,42.805,6.029,CST-1368DR,8358,11694,15431,0.048,551
2019-08-10T05:36:47,42.805,6.029,CST-1368DR,8358,11694,15431,0.048,551
2019-08-10T05:39:49,42.805,6.029,CST-1368DR,8358,11694,15430,0.048,551
2019-08-10T05:42:51,42.805,6.029,CST-1368DR,8358,11693,15430,0.048,550
2019-08-10T05:45:52,42.805,6.029,CST-1368DR,8358,11691,15427,0.049,551
2019-08-10T05:48:54,42.805,6.029,CST-1368DR,8358,11694,15431,0.048,551
2019-08-10T05:51:56,42.805,6.029,CST-1368DR,8358,11693,15429,0.048,550
2019-08-10T05:54:57,42.805,6.029,CST-1368DR,8358,11693,15430,0.048,551
2019-08-10T05:57:59,42.805,6.029,CST-1368DR,8358,11693,15430,0.048,551
2019-08-10T06:01:01,42.805,6.029,CST-1368DR,8358,11692,15429,0.048,551
2019-08-10T06:04:02,42.805,6.029,CST-1368DR,8358,11693,15430,0.048,551
2019-08-10T06:07:04,42.805,6.029,CST-1368DR,8358,11694,15430,0.048,551
2019-08-10T06:10:05,42.805,6.029,CST-1368DR,8358,11694,15431,0.048,550
2019-08-10T06:13:07,42.805,6.029,CST-1368DR,8358,11695,15432,0.047,551
2019-08-10T06:16:09,42.805,6.029,CST-1368DR,8358,11694,15431,0.048,551
2019-08-10T06:19:10,42.805,6.029,CST-1368DR,8358,11695,15432,0.047,551
2019-08-10T06:22:12,42.805,6.029,CST-1368DR,8358,11693,15429,0.048,551
2019-08-10T06:25:14,42.805,6.029,CST-1368DR,8358,11693,15430,0.048,551
2019-08-10T06:28:15,42.805,6.029,CST-1368DR,8358,11694,15430,0.048,551
2019-08-10T06:31:17,42.805,6.029,CST-1368DR,8358,11694,15431,0.048,550
2019-08-10T06:34:18,42.805,6.029,CST-1368DR,8358,11693,15430,0.048,551
2019-08-10T06:37:20,42.805,6.029,CST-1368DR,8358,11693,15429,0.048,551
2019-08-10T06:40:22,42.805,6.029,CST-1368DR,8358,11693,15430,0.048,551
2019-08-10T06:43:23,42.805,6.029,CST-1368DR,8358,11694,15431,0.048,551
2019-08-10T06:46:25,42.805,6.029,CST-1368DR,8358,11694,15431,0.048,551
2019-08-10T06:49:27,42.805,6.029,CST-1368DR,8358,11692,15429,0.048,550
2019-08-10T06:52:28,42.805,6.029,CST-1368DR,8358,11692,15428,0.048,550
2019-08-10T06:55:30,42.805,6.029,CST-1368DR,8358,11692,15429,0.048,551
2019-08-10T06:58:32,42.805,6.029,CST-1368DR,8358,11692,15428,0.048,551
2019-08-10T07:01:33,42.805,6.029,CST-1368DR,8357,11692,15430,0.048,551
2019-08-10T07:04:35,42.805,6.029,CST-1368DR,8357,11692,15430,0.048,551
2019-08-10T07:07:36,42.805,6.029,CST-1368DR,8357,11693,15431,0.048,551
2019-08-10T07:10:38,42.805,6.029,CST-1368DR,8357,11693,15431,0.048,551
2019-08-10T07:13:40,42.805,6.029,CST-1368DR,8357,11691,15428,0.048,551
2019-08-10T07:16:41,42.805,6.029,CST-1368DR,8357,11692,15429,0.048,551
2019-08-10T07:19:43,42.805,6.029,CST-1368DR,8357,11689,15425,0.049,551
2019-08-10T07:22:45,42.805,6.029,CST-1368DR,8357,11691,15428,0.048,551
2019-08-10T07:25:46,42.805,6.029,CST-1368DR,8357,11693,15431,0.048,551
2019-08-10T07:28:48,42.805,6.029,CST-1368DR,8357,11692,15429,0.048,551
2019-08-10T07:31:49,42.805,6.029,CST-1368DR,8357,11692,15430,0.048,551
2019-08-10T07:34:51,42.805,6.029,CST-1368DR,8357,11693,15431,0.048,551
2019-08-10T07:37:53,42.805,6.029,CST-1368DR,8357,11692,15430,0.048,551
2019-08-10T07:40:54,42.805,6.029,CST-1368DR,8357,11691,15428,0.048,551
2019-08-10T07:43:56,42.805,6.029,CST-1368DR,8357,11692,15430,0.048,551
2019-08-10T07:46:58,42.805,6.029,CST-1368DR,8357,11694,15432,0.047,551
2019-08-10T07:49:59,42.805,6.029,CST-1368DR,8357,11692,15430,0.048,551
2019-08-10T07:53:01,42.805,6.029,CST-1368DR,8357,11692,15430,0.048,551
2019-08-10T07:56:03,42.805,6.029,CST-1368DR,8357,11691,15429,0.048,551
2019-08-10T07:59:04,42.805,6.029,CST-1368DR,8357,11692,15430,0.048,551
2019-08-10T08:02:06,42.805,6.029,CST-1368DR,8357,11690,15427,0.049,551
2019-08-10T08:05:07,42.805,6.029,CST-1368DR,8357,11692,15430,0.048,551
2019-08-10T08:08:09,42.805,6.029,CST-1368DR,8357,11692,15430,0.048,551
2019-08-10T08:11:11,42.805,6.029,CST-1368DR,8357,11691,15429,0.048,550
2019-08-10T08:14:12,42.805,6.029,CST-1368DR,8357,11692,15430,0.048,551
2019-08-10T08:17:14,42.805,6.029,CST-1368DR,8357,11692,15430,0.048,551
2019-08-10T08:20:16,42.805,6.029,CST-1368DR,8357,11691,15428,0.048,551
2019-08-10T08:23:17,42.805,6.029,CST-1368DR,8357,11692,15430,0.048,551
2019-08-10T08:26:19,42.805,6.029,CST-1368DR,8357,11692,15430,0.048,551
2019-08-10T08:29:21,42.805,6.029,CST-1368DR,8357,11693,15431,0.048,551
2019-08-10T08:32:22,42.805,6.029,CST-1368DR,8357,11691,15428,0.048,551
2019-08-10T08:35:24,42.805,6.029,CST-1368DR,8357,11692,15429,0.048,550
2019-08-10T08:38:25,42.805,6.029,CST-1368DR,8357,11689,15426,0.049,550
2019-08-10T08:41:27,42.805,6.029,CST-1368DR,8357,11690,15427,0.049,551
2019-08-10T08:44:29,42.805,6.029,CST-1368DR,8357,11687,15423,0.050,551
2019-08-10T08:47:30,42.805,6.029,CST-1368DR,8357,11687,15423,0.050,551
2019-08-10T08:50:32,42.805,6.029,CST-1368DR,8357,11692,15429,0.048,551
2019-08-10T08:53:34,42.805,6.029,CST-1368DR,8357,11691,15429,0.048,551
2019-08-10T08:56:35,42.805,6.029,CST-1368DR,8357,11691,15428,0.048,550
2019-08-10T08:59:37,42.805,6.029,CST-1368DR,8356,11689,15428,0.048,550
2019-08-10T09:02:38,42.805,6.029,CST-1368DR,8357,11692,15429,0.048,551
2019-08-10T09:05:40,42.805,6.029,CST-1368DR,8357,11691,15428,0.048,551
2019-08-10T09:08:42,42.805,6.029,CST-1368DR,8357,11689,15426,0.049,551
2019-08-10T09:11:43,42.805,6.029,CST-1368DR,8357,11690,15427,0.049,551
2019-08-10T09:14:45,42.805,6.029,CST-1368DR,8356,11691,15430,0.048,551
2019-08-10T09:17:47,42.805,6.029,CST-1368DR,8356,11689,15427,0.049,551
2019-08-10T09:20:48,42.805,6.029,CST-1368DR,8357,11690,15427,0.049,551
2019-08-10T09:23:50,42.805,6.029,CST-1368DR,8356,11690,15428,0.048,551
2019-08-10T09:26:52,42.805,6.029,CST-1368DR,8357,11691,15428,0.048,551
2019-08-10T09:29:53,42.805,6.029,CST-1368DR,8356,11690,15429,0.048,551
2019-08-10T09:32:55,42.805,6.029,CST-1368DR,8356,11691,15430,0.048,550
2019-08-10T09:35:57,42.805,6.029,CST-1368DR,8356,11689,15428,0.048,551
2019-08-10T09:38:58,42.805,6.029,CST-1368DR,8356,11689,15428,0.048,551
2019-08-10T09:42:00,42.805,6.029,CST-1368DR,8356,11690,15429,0.048,551
2019-08-10T09:45:02,42.805,6.029,CST-1368DR,8356,11689,15427,0.049,550
2019-08-10T09:48:03,42.805,6.029,CST-1368DR,8356,11690,15428,0.048,551
2019-08-10T09:51:05,42.805,6.029,CST-1368DR,8356,11689,15427,0.049,551
2019-08-10T09:54:07,42.805,6.029,CST-1368DR,8356,11690,15429,0.048,551
2019-08-10T09:57:08,42.805,6.029,CST-1368DR,8356,11691,15430,0.048,551
2019-08-10T10:00:10,42.805,6.029,CST-1368DR,8356,11691,15430,0.048,551
2019-08-10T10:03:12,42.805,6.029,CST-1368DR,8356,11691,15430,0.048,551
2019-08-10T10:06:13,42.805,6.029,CST-1368DR,8356,11691,15430,0.048,551
2019-08-10T10:09:15,42.805,6.029,CST-1368DR,8356,11691,15430,0.048,551
2019-08-10T10:12:17,42.805,6.029,CST-1368DR,8356,11691,15430,0.048,550
2019-08-10T10:15:18,42.805,6.029,CST-1368DR,8356,11691,15430,0.048,550
2019-08-10T10:18:20,42.805,6.029,CST-1368DR,8356,11691,15430,0.048,551
2019-08-10T10:21:22,42.805,6.029,CST-1368DR,8356,11690,15428,0.048,550
2019-08-10T10:24:23,42.805,6.029,CST-1368DR,8356,11692,15431,0.048,551
2019-08-10T10:27:25,42.805,6.029,CST-1368DR,8356,11691,15430,0.048,551
2019-08-10T10:30:26,42.805,6.029,CST-1368DR,8356,11690,15429,0.048,551
2019-08-10T10:33:28,42.805,6.029,CST-1368DR,8356,11690,15429,0.048,551
2019-08-10T10:36:30,42.805,6.029,CST-1368DR,8356,11689,15427,0.049,551
2019-08-10T10:39:32,42.805,6.029,CST-1368DR,8356,11691,15430,0.048,551
2019-08-10T10:42:33,42.805,6.029,CST-1368DR,8356,11689,15427,0.049,551
2019-08-10T10:45:35,42.805,6.029,CST-1368DR,8356,11689,15428,0.048,551
2019-08-10T10:48:36,42.805,6.029,CST-1368DR,8356,11688,15427,0.049,551
2019-08-10T10:51:38,42.805,6.029,CST-1368DR,8355,11676,15412,0.053,551
2019-08-10T10:54:40,42.805,6.029,CST-1368DR,8356,11688,15426,0.049,551
2019-08-10T10:57:41,42.805,6.029,CST-1368DR,8356,11690,15429,0.048,551
2019-08-10T11:00:43,42.805,6.029,CST-1368DR,8356,11690,15428,0.048,551
2019-08-10T11:03:45,42.805,6.029,CST-1368DR,8355,11689,15429,0.048,551
2019-08-10T11:06:46,42.805,6.029,CST-1368DR,8356,11688,15426,0.049,551
2019-08-10T11:09:48,42.805,6.029,CST-1368DR,8355,11690,15430,0.048,551
2019-08-10T11:12:50,42.805,6.029,CST-1368DR,8355,11689,15429,0.048,551
2019-08-10T11:15:51,42.805,6.029,CST-1368DR,8355,11690,15430,0.048,551
2019-08-10T11:18:53,42.805,6.029,CST-1368DR,8355,11688,15428,0.048,551
2019-08-10T11:21:55,42.805,6.029,CST-1368DR,8355,11689,15429,0.048,551
2019-08-10T11:24:56,42.805,6.029,CST-1368DR,8355,11690,15430,0.048,550
2019-08-10T11:27:58,42.805,6.029,CST-1368DR,8355,11688,15428,0.048,551
2019-08-10T11:31:00,42.805,6.029,CST-1368DR,8355,11689,15429,0.048,551
2019-08-10T11:34:01,42.805,6.029,CST-1368DR,8355,11687,15427,0.049,551
2019-08-10T11:37:03,42.805,6.029,CST-1368DR,8355,11688,15428,0.048,551
2019-08-10T11:40:05,42.805,6.029,CST-1368DR,8355,11689,15429,0.048,551
2019-08-10T11:43:06,42.805,6.029,CST-1368DR,8355,11689,15430,0.048,550
2019-08-10T11:46:08,42.805,6.029,CST-1368DR,8355,11690,15430,0.048,551
2019-08-10T11:49:10,42.805,6.029,CST-1368DR,8355,11687,15426,0.049,550
2019-08-10T11:52:11,42.805,6.029,CST-1368DR,8355,11689,15429,0.048,551
2019-08-10T11:55:13,42.805,6.029,CST-1368DR,8355,11689,15429,0.048,551
2019-08-10T11:58:15,42.805,6.029,CST-1368DR,8355,11689,15430,0.048,551
2019-08-10T12:01:16,42.805,6.029,CST-1368DR,8355,11690,15430,0.048,551
2019-08-10T12:04:18,42.805,6.029,CST-1368DR,8355,11691,15431,0.048,551
2019-08-10T12:07:20,42.805,6.029,CST-1368DR,8355,11689,15430,0.048,551
2019-08-10T12:10:21,42.805,6.029,CST-1368DR,8355,11688,15428,0.048,551
2019-08-10T12:13:23,42.805,6.029,CST-1368DR,8355,11690,15430,0.048,550
2019-08-10T12:16:25,42.805,6.029,CST-1368DR,8355,11689,15429,0.048,551
2019-08-10T12:19:26,42.805,6.029,CST-1368DR,8355,11689,15429,0.048,551
2019-08-10T12:22:28,42.805,6.029,CST-1368DR,8355,11690,15430,0.048,551
2019-08-10T12:25:30,42.805,6.029,CST-1368DR,8355,11690,15431,0.048,551
2019-08-10T12:28:31,42.805,6.029,CST-1368DR,8355,11691,15431,0.048,551
2019-08-10T12:31:33,42.805,6.029,CST-1368DR,8355,11689,15430,0.048,551
2019-08-10T12:34:35,42.805,6.029,CST-1368DR,8355,11689,15430,0.048,551
2019-08-10T12:37:36,42.805,6.029,CST-1368DR,8355,11688,15428,0.048,551
2019-08-10T12:40:38,42.805,6.029,CST-1368DR,8355,11690,15430,0.048,550
2019-08-10T12:43:40,42.805,6.029,CST-1368DR,8355,11690,15430,0.048,551
2019-08-10T12:46:41,42.805,6.029,CST-1368DR,8355,11690,15431,0.048,551
2019-08-10T12:49:43,42.805,6.029,CST-1368DR,8355,11686,15426,0.049,551
2019-08-10T12:52:45,42.805,6.029,CST-1368DR,8355,11690,15430,0.048,551
2019-08-10T12:55:46,42.805,6.029,CST-1368DR,8355,11690,15431,0.048,551
2019-08-10T12:58:48,42.805,6.029,CST-1368DR,8355,11689,15429,0.048,551
2019-08-10T13:01:50,42.805,6.029,CST-1368DR,8355,11688,15428,0.048,551
2019-08-10T13:04:51,42.805,6.029,CST-1368DR,8354,11688,15430,0.048,551
2019-08-10T13:07:53,42.805,6.029,CST-1368DR,8355,11687,15427,0.049,551
2019-08-10T13:10:55,42.805,6.029,CST-1368DR,8354,11689,15431,0.048,551
2019-08-10T13:13:56,42.805,6.029,CST-1368DR,8355,11689,15429,0.048,551
2019-08-10T13:16:58,42.805,6.029,CST-1368DR,8354,11686,15427,0.049,550
2019-08-10T13:20:00,42.805,6.029,CST-1368DR,8355,11690,15430,0.048,551
2019-08-10T13:23:02,42.805,6.029,CST-1368DR,8355,11689,15429,0.048,551
2019-08-10T13:26:04,42.805,6.029,CST-1368DR,8355,11688,15428,0.048,551
2019-08-10T13:29:05,42.805,6.029,CST-1368DR,8354,11689,15431,0.048,551
2019-08-10T13:32:07,42.805,6.029,CST-1368DR,8354,11687,15428,0.048,551
2019-08-10T13:35:09,42.805,6.029,CST-1368DR,8354,11690,15432,0.047,551
2019-08-10T13:38:10,42.805,6.029,CST-1368DR,8354,11690,15432,0.047,551
2019-08-10T13:41:12,42.805,6.029,CST-1368DR,8354,11689,15431,0.048,551
2019-08-10T13:44:14,42.805,6.029,CST-1368DR,8354,11689,15431,0.048,551
2019-08-10T13:47:15,42.805,6.029,CST-1368DR,8354,11689,15432,0.047,551
2019-08-10T13:50:17,42.805,6.029,CST-1368DR,8354,11689,15431,0.048,551
2019-08-10T13:53:19,42.805,6.029,CST-1368DR,8354,11690,15432,0.047,551
2019-08-10T13:56:20,42.805,6.029,CST-1368DR,8354,11689,15431,0.048,551
2019-08-10T13:59:22,42.805,6.029,CST-1368DR,8354,11688,15429,0.048,551
2019-08-10T14:02:24,42.805,6.029,CST-1368DR,8354,11687,15429,0.048,551
2019-08-10T14:05:25,42.805,6.029,CST-1368DR,8354,11688,15430,0.048,551
2019-08-10T14:08:27,42.805,6.029,CST-1368DR,8354,11688,15430,0.048,551
2019-08-10T14:11:29,42.805,6.029,CST-1368DR,8354,11688,15430,0.048,551
2019-08-10T14:14:30,42.805,6.029,CST-1368DR,8354,11688,15429,0.048,551
2019-08-10T14:17:32,42.805,6.029,CST-1368DR,8354,11687,15428,0.048,551
2019-08-10T14:20:34,42.805,6.029,CST-1368DR,8354,11689,15431,0.048,551
2019-08-10T14:23:35,42.805,6.029,CST-1368DR,8354,11688,15430,0.048,550
2019-08-10T14:26:37,42.805,6.029,CST-1368DR,8354,11688,15430,0.048,551
2019-08-10T14:29:39,42.805,6.029,CST-1368DR,8354,11687,15428,0.048,551
2019-08-10T14:32:40,42.805,6.029,CST-1368DR,8354,11688,15430,0.048,551
2019-08-10T14:35:42,42.805,6.029,CST-1368DR,8354,11688,15430,0.048,551
2019-08-10T14:38:44,42.805,6.029,CST-1368DR,8354,11687,15428,0.048,551
2019-08-10T14:41:45,42.805,6.029,CST-1368DR,8354,11688,15430,0.048,551
2019-08-10T14:44:47,42.805,6.029,CST-1368DR,8354,11687,15428,0.048,551
2019-08-10T14:47:49,42.805,6.029,CST-1368DR,8354,11687,15429,0.048,550
2019-08-10T14:50:50,42.805,6.029,CST-1368DR,8354,11686,15428,0.048,551
2019-08-10T14:53:52,42.805,6.029,CST-1368DR,8354,11686,15428,0.048,551
2019-08-10T14:56:54,42.805,6.029,CST-1368DR,8354,11689,15431,0.048,551
2019-08-10T14:59:55,42.805,6.029,CST-1368DR,8353,11687,15430,0.048,551
2019-08-10T15:02:57,42.805,6.029,CST-1368DR,8354,11688,15429,0.048,551
2019-08-10T15:05:59,42.805,6.029,CST-1368DR,8353,11687,15431,0.048,551
2019-08-10T15:09:00,42.805,6.029,CST-1368DR,8353,11685,15428,0.048,551
2019-08-10T15:12:02,42.805,6.029,CST-1368DR,8353,11688,15431,0.048,551
2019-08-10T15:15:04,42.805,6.029,CST-1368DR,8353,11688,15431,0.048,551
2019-08-10T15:18:05,42.805,6.029,CST-1368DR,8353,11688,15432,0.047,551
2019-08-10T15:21:07,42.805,6.029,CST-1368DR,8353,11687,15431,0.048,551
2019-08-10T15:24:08,42.805,6.029,CST-1368DR,8353,11689,15433,0.047,551
2019-08-10T15:27:10,42.805,6.029,CST-1368DR,8353,11686,15429,0.048,551
2019-08-10T15:30:12,42.805,6.029,CST-1368DR,8353,11687,15430,0.048,551
2019-08-10T15:33:13,42.805,6.029,CST-1368DR,8353,11688,15431,0.048,551
2019-08-10T15:36:15,42.805,6.029,CST-1368DR,8353,11686,15428,0.048,551
2019-08-10T15:39:17,42.805,6.029,CST-1368DR,8353,11688,15431,0.048,550
2019-08-10T15:42:18,42.805,6.029,CST-1368DR,8353,11686,15429,0.048,550
2019-08-10T15:45:20,42.805,6.029,CST-1368DR,8353,11688,15432,0.047,551
2019-08-10T15:48:21,42.805,6.029,CST-1368DR,8353,11685,15427,0.049,550
2019-08-10T15:51:23,42.805,6.029,CST-1368DR,8353,11686,15429,0.048,551
2019-08-10T15:54:25,42.805,6.029,CST-1368DR,8353,11686,15428,0.048,551
2019-08-10T15:57:26,42.805,6.029,CST-1368DR,8353,11688,15431,0.048,551
2019-08-10T16:00:28,42.805,6.029,CST-1368DR,8353,11687,15430,0.048,551
2019-08-10T16:03:30,42.805,6.029,CST-1368DR,8353,11687,15430,0.048,550
2019-08-10T16:06:31,42.805,6.029,CST-1368DR,8353,11687,15430,0.048,551
2019-08-10T16:09:33,42.805,6.029,CST-1368DR,8353,11686,15428,0.048,551
2019-08-10T16:12:35,42.805,6.029,CST-1368DR,8353,11688,15431,0.048,551
2019-08-10T16:15:36,42.805,6.029,CST-1368DR,8353,11686,15429,0.048,551
2019-08-10T16:18:38,42.805,6.029,CST-1368DR,8353,11685,15428,0.048,551
2019-08-10T16:21:40,42.805,6.029,CST-1368DR,8353,11686,15428,0.048,551
2019-08-10T16:24:41,42.805,6.029,CST-1368DR,8353,11686,15429,0.048,551
2019-08-10T16:27:43,42.805,6.029,CST-1368DR,8353,11683,15425,0.049,551
2019-08-10T16:30:45,42.805,6.029,CST-1368DR,8353,11687,15430,0.048,551
2019-08-10T16:33:46,42.805,6.029,CST-1368DR,8353,11686,15429,0.048,551
2019-08-10T16:36:48,42.805,6.029,CST-1368DR,8353,11688,15431,0.048,551